PAL597 RPLL-VVTS

Flight info

Callsign PAL597
Flight time 2h 27m
Altitude 34000
Route BETEL2R BETEL M765 PANDI/K0902F340 N500 PTH PTH5D
Aircraft A359/H-SDE2E3GHIJ3J4J5LM1ORWXY/LB1D1

Departure

Time 2026-05-08 07:33
Airport Ninoy Aquino International Airport (RPLL)

Arrival

Time 2026-05-08 10:01
Airport Tan Son Nhat International Airport (VVTS)
Time Latitude Longitude Altitude Speed Heading
2026-05-08 07:01 14.50359 121.00364 75 ft 0 kts 50°
2026-05-08 07:24 14.50354 121.00357 64 ft 3 kts 50°
2026-05-08 07:24 14.50340 121.00340 63 ft 4 kts 50°
2026-05-08 07:25 14.50323 121.00319 64 ft 4 kts 57°
2026-05-08 07:25 14.50315 121.00297 64 ft 4 kts 116°
2026-05-08 07:25 14.50358 121.00285 66 ft 4 kts 185°
2026-05-08 07:26 14.50380 121.00286 70 ft 0 kts 185°
2026-05-08 07:29 14.50378 121.00286 69 ft 2 kts 185°
2026-05-08 07:29 14.50340 121.00283 64 ft 8 kts 184°
2026-05-08 07:30 14.50274 121.00280 67 ft 10 kts 176°
2026-05-08 07:30 14.50202 121.00310 68 ft 12 kts 150°
2026-05-08 07:30 14.50129 121.00332 66 ft 10 kts 204°
2026-05-08 07:30 14.50084 121.00271 64 ft 12 kts 241°
2026-05-08 07:31 14.50040 121.00189 68 ft 14 kts 240°
2026-05-08 07:31 14.49988 121.00096 67 ft 16 kts 239°
2026-05-08 07:31 14.49938 121.00008 65 ft 11 kts 239°
2026-05-08 07:31 14.49879 120.99968 67 ft 11 kts 176°
2026-05-08 07:32 14.49813 121.00009 65 ft 12 kts 121°
2026-05-08 07:32 14.49825 121.00079 70 ft 8 kts 62°
2026-05-08 07:32 14.49827 121.00083 71 ft 0 kts 62°
2026-05-08 07:32 14.49830 121.00088 73 ft 8 kts 62°
2026-05-08 07:33 14.49969 121.00338 67 ft 77 kts 59°
2026-05-08 07:33 14.50349 121.01022 66 ft 140 kts 60°
2026-05-08 07:33 14.50921 121.02032 307 ft 175 kts 63°
2026-05-08 07:33 14.51504 121.03089 1169 ft 164 kts 64°
2026-05-08 07:34 14.52030 121.04138 1783 ft 171 kts 66°
2026-05-08 07:34 14.52605 121.05294 2103 ft 192 kts 64°
2026-05-08 07:34 14.53299 121.06521 2495 ft 206 kts 60°
2026-05-08 07:34 14.54059 121.07817 3064 ft 212 kts 61°
2026-05-08 07:35 14.54849 121.09194 3436 ft 234 kts 60°
2026-05-08 07:35 14.55693 121.10690 4034 ft 244 kts 61°
2026-05-08 07:35 14.56638 121.12132 4757 ft 249 kts 49°
2026-05-08 07:35 14.58051 121.13180 5476 ft 256 kts 23°
2026-05-08 07:36 14.59806 121.13502 6257 ft 260 kts
2026-05-08 07:36 14.61646 121.13436 6868 ft 270 kts 354°
2026-05-08 07:36 14.63468 121.12825 7490 ft 281 kts 333°
2026-05-08 07:36 14.64908 121.11436 8231 ft 290 kts 303°
2026-05-08 07:37 14.65500 121.09438 8984 ft 299 kts 272°
2026-05-08 07:37 14.65036 121.07356 9769 ft 303 kts 244°
2026-05-08 07:37 14.64015 121.05420 10394 ft 313 kts 240°
2026-05-08 07:37 14.62887 121.03413 10730 ft 332 kts 240°
2026-05-08 07:38 14.61728 121.01303 11053 ft 350 kts 241°
2026-05-08 07:38 14.60520 120.99056 11448 ft 364 kts 241°
2026-05-08 07:38 14.59290 120.96742 12005 ft 370 kts 241°
2026-05-08 07:38 14.58052 120.94398 12683 ft 373 kts 241°
2026-05-08 07:39 14.56805 120.92032 13343 ft 378 kts 241°
2026-05-08 07:39 14.55545 120.89636 13917 ft 382 kts 241°
2026-05-08 07:39 14.54270 120.87212 14459 ft 385 kts 241°
2026-05-08 07:39 14.52986 120.84770 15035 ft 388 kts 241°
2026-05-08 07:40 14.51697 120.82317 15595 ft 391 kts 241°
2026-05-08 07:40 14.50394 120.79840 16131 ft 394 kts 241°
2026-05-08 07:40 14.49082 120.77347 16679 ft 397 kts 241°
2026-05-08 07:40 14.47761 120.74835 17223 ft 400 kts 241°
2026-05-08 07:41 14.46429 120.72304 17764 ft 403 kts 241°
2026-05-08 07:41 14.45084 120.69749 18198 ft 408 kts 240°
2026-05-08 07:41 14.43717 120.67154 18551 ft 414 kts 240°
2026-05-08 07:41 14.42336 120.64532 18976 ft 418 kts 240°
2026-05-08 07:42 14.40945 120.61893 19499 ft 418 kts 240°
2026-05-08 07:42 14.39556 120.59257 20078 ft 417 kts 241°
2026-05-08 07:42 14.38162 120.56614 20531 ft 422 kts 241°
2026-05-08 07:42 14.36753 120.53943 20980 ft 426 kts 241°
2026-05-08 07:43 14.35332 120.51250 21475 ft 428 kts 241°
2026-05-08 07:43 14.33907 120.48550 22025 ft 429 kts 241°
2026-05-08 07:43 14.32472 120.45833 22515 ft 432 kts 241°
2026-05-08 07:43 14.31026 120.43093 22906 ft 438 kts 242°
2026-05-08 07:44 14.29585 120.40366 23429 ft 439 kts 242°
2026-05-08 07:44 14.28122 120.37599 23901 ft 439 kts 242°
2026-05-08 07:44 14.26661 120.34837 24346 ft 441 kts 242°
2026-05-08 07:44 14.25181 120.32038 24723 ft 445 kts 242°
2026-05-08 07:45 14.23699 120.29236 25164 ft 448 kts 242°
2026-05-08 07:45 14.22198 120.26402 25643 ft 450 kts 242°
2026-05-08 07:45 14.20692 120.23557 26059 ft 454 kts 242°
2026-05-08 07:45 14.19173 120.20690 26522 ft 457 kts 242°
2026-05-08 07:46 14.17704 120.17780 26960 ft 460 kts 246°
2026-05-08 07:46 14.16393 120.14762 27417 ft 463 kts 248°
2026-05-08 07:46 14.15152 120.11690 27862 ft 466 kts 249°
2026-05-08 07:46 14.13939 120.08582 28311 ft 469 kts 249°
2026-05-08 07:47 14.12728 120.05447 28713 ft 472 kts 249°
2026-05-08 07:47 14.11506 120.02293 29139 ft 475 kts 249°
2026-05-08 07:47 14.10271 119.99129 29557 ft 479 kts 249°
2026-05-08 07:47 14.09018 119.95939 29792 ft 478 kts 249°
2026-05-08 07:48 14.07778 119.92804 29814 ft 464 kts 249°
2026-05-08 07:48 14.05384 119.86779 29815 ft 455 kts 249°
2026-05-08 07:49 14.02987 119.80754 29814 ft 454 kts 249°
2026-05-08 07:49 14.00600 119.74735 29815 ft 454 kts 249°
2026-05-08 07:50 13.98611 119.69727 29821 ft 454 kts 249°
2026-05-08 07:50 13.96214 119.63700 29818 ft 455 kts 249°
2026-05-08 07:51 13.93816 119.57677 29819 ft 455 kts 249°
2026-05-08 07:51 13.91414 119.51649 29817 ft 455 kts 249°
2026-05-08 07:52 13.89011 119.45623 29817 ft 455 kts 249°
2026-05-08 07:52 13.86607 119.39602 29817 ft 455 kts 249°
2026-05-08 07:53 13.84202 119.33581 29821 ft 455 kts 249°
2026-05-08 07:53 13.81814 119.27607 29823 ft 454 kts 249°
2026-05-08 07:54 13.79404 119.21586 29822 ft 454 kts 249°
2026-05-08 07:54 13.76995 119.15569 29829 ft 454 kts 249°
2026-05-08 07:55 13.74586 119.09558 29824 ft 454 kts 249°
2026-05-08 07:55 13.72178 119.03555 29824 ft 454 kts 249°
2026-05-08 07:56 13.69777 118.97573 29825 ft 454 kts 249°
2026-05-08 07:56 13.67360 118.91556 29820 ft 454 kts 249°
2026-05-08 07:57 13.64945 118.85551 29827 ft 454 kts 249°
2026-05-08 07:57 13.62530 118.79550 29823 ft 454 kts 249°
2026-05-08 07:58 13.60112 118.73544 29826 ft 454 kts 249°
2026-05-08 07:58 13.57709 118.67577 29827 ft 454 kts 249°
2026-05-08 07:59 13.55289 118.61578 29826 ft 454 kts 249°
2026-05-08 07:59 13.52864 118.55576 29825 ft 455 kts 249°
2026-05-08 08:00 13.50445 118.49591 29824 ft 454 kts 249°
2026-05-08 08:00 13.48018 118.43589 29830 ft 455 kts 249°
2026-05-08 08:01 13.45606 118.37629 29827 ft 454 kts 249°
2026-05-08 08:01 13.43177 118.31630 29828 ft 454 kts 249°
2026-05-08 08:02 13.40744 118.25628 29827 ft 454 kts 249°
2026-05-08 08:02 13.38312 118.19632 29828 ft 454 kts 249°
2026-05-08 08:03 13.35883 118.13649 29826 ft 454 kts 249°
2026-05-08 08:03 13.33463 118.07692 29829 ft 454 kts 249°
2026-05-08 08:04 13.31029 118.01707 29826 ft 454 kts 249°
2026-05-08 08:04 13.29405 117.97714 29828 ft 454 kts 248°
2026-05-08 08:05 13.26165 117.89757 29829 ft 454 kts 249°
2026-05-08 08:05 13.23731 117.83786 29830 ft 454 kts 249°
2026-05-08 08:06 13.21286 117.77790 29827 ft 455 kts 248°
2026-05-08 08:06 13.18847 117.71813 29831 ft 454 kts 249°
2026-05-08 08:07 13.16405 117.65837 29832 ft 454 kts 248°
2026-05-08 08:07 13.13961 117.59856 29831 ft 454 kts 249°
2026-05-08 08:08 13.11519 117.53887 29830 ft 454 kts 248°
2026-05-08 08:08 13.09087 117.47948 29832 ft 454 kts 248°
2026-05-08 08:09 13.06640 117.41976 29829 ft 454 kts 248°
2026-05-08 08:09 13.04191 117.36002 29832 ft 455 kts 248°
2026-05-08 08:10 13.01740 117.30029 29832 ft 454 kts 248°
2026-05-08 08:10 12.99286 117.24054 29833 ft 455 kts 248°
2026-05-08 08:11 12.96827 117.18070 29832 ft 455 kts 248°
2026-05-08 08:11 12.94364 117.12081 29826 ft 456 kts 248°
2026-05-08 08:12 12.91901 117.06096 29829 ft 456 kts 248°
2026-05-08 08:12 12.89431 117.00100 29831 ft 456 kts 248°
2026-05-08 08:13 12.86981 116.94155 29834 ft 456 kts 248°
2026-05-08 08:13 12.84513 116.88173 29829 ft 455 kts 248°
2026-05-08 08:14 12.82045 116.82196 29832 ft 456 kts 248°
2026-05-08 08:14 12.79577 116.76222 29832 ft 455 kts 248°
2026-05-08 08:15 12.77101 116.70245 29832 ft 456 kts 248°
2026-05-08 08:15 12.74631 116.64274 29832 ft 455 kts 248°
2026-05-08 08:16 12.72155 116.58286 29832 ft 455 kts 248°
2026-05-08 08:16 12.69699 116.52358 29831 ft 455 kts 248°
2026-05-08 08:17 12.67225 116.46392 29835 ft 454 kts 248°
2026-05-08 08:17 12.64750 116.40427 29831 ft 456 kts 248°
2026-05-08 08:18 12.62269 116.34455 29834 ft 455 kts 248°
2026-05-08 08:18 12.59790 116.28493 29835 ft 456 kts 248°
2026-05-08 08:19 12.57311 116.22530 29837 ft 455 kts 248°
2026-05-08 08:19 12.54831 116.16570 29833 ft 455 kts 248°
2026-05-08 08:20 12.52351 116.10616 29835 ft 455 kts 248°
2026-05-08 08:20 12.49872 116.04669 29835 ft 454 kts 248°
2026-05-08 08:21 12.47406 115.98757 29838 ft 455 kts 248°
2026-05-08 08:21 12.44923 115.92809 29837 ft 454 kts 248°
2026-05-08 08:22 12.42442 115.86868 29837 ft 455 kts 248°
2026-05-08 08:22 12.39957 115.80924 29837 ft 454 kts 248°
2026-05-08 08:23 12.37474 115.74988 29838 ft 454 kts 248°
2026-05-08 08:23 12.34989 115.69053 29833 ft 454 kts 248°
2026-05-08 08:24 12.32501 115.63112 29834 ft 454 kts 248°
2026-05-08 08:24 12.30015 115.57182 29837 ft 454 kts 248°
2026-05-08 08:25 12.27527 115.51250 29836 ft 453 kts 248°
2026-05-08 08:25 12.25055 115.45362 29838 ft 454 kts 248°
2026-05-08 08:26 12.22566 115.39438 29837 ft 453 kts 248°
2026-05-08 08:26 12.20074 115.33508 29838 ft 454 kts 248°
2026-05-08 08:27 12.17580 115.27580 29837 ft 453 kts 248°
2026-05-08 08:27 12.15088 115.21661 29841 ft 453 kts 248°
2026-05-08 08:28 12.12595 115.15742 29840 ft 453 kts 248°
2026-05-08 08:28 12.10104 115.09834 29837 ft 452 kts 248°
2026-05-08 08:29 12.07628 115.03962 29838 ft 453 kts 248°
2026-05-08 08:29 12.05179 114.98161 29836 ft 452 kts 248°
2026-05-08 08:30 12.02684 114.92255 29835 ft 453 kts 248°
2026-05-08 08:30 11.98942 114.83403 29838 ft 453 kts 248°
2026-05-08 08:31 11.96445 114.77502 29837 ft 452 kts 248°
2026-05-08 08:31 11.93944 114.71596 29837 ft 453 kts 248°
2026-05-08 08:32 11.91446 114.65700 29837 ft 452 kts 248°
2026-05-08 08:32 11.88946 114.59802 29835 ft 452 kts 248°
2026-05-08 08:33 11.86449 114.53917 29834 ft 452 kts 248°
2026-05-08 08:33 11.83962 114.48059 29835 ft 452 kts 248°
2026-05-08 08:34 11.81462 114.42175 29838 ft 452 kts 248°
2026-05-08 08:34 11.78959 114.36286 29834 ft 452 kts 248°
2026-05-08 08:35 11.76453 114.30395 29837 ft 452 kts 248°
2026-05-08 08:35 11.73955 114.24529 29837 ft 451 kts 248°
2026-05-08 08:36 11.71451 114.18650 29837 ft 452 kts 248°
2026-05-08 08:36 11.68962 114.12809 29834 ft 451 kts 248°
2026-05-08 08:37 11.66455 114.06931 29834 ft 451 kts 248°
2026-05-08 08:37 11.64045 114.01027 29835 ft 450 kts 254°
2026-05-08 08:38 11.62876 113.94774 29833 ft 447 kts 264°
2026-05-08 08:38 11.62135 113.88483 29835 ft 447 kts 265°
2026-05-08 08:39 11.61570 113.83239 29837 ft 447 kts 265°
2026-05-08 08:39 11.60760 113.75905 29837 ft 447 kts 265°
2026-05-08 08:40 11.60045 113.69606 29837 ft 446 kts 265°
2026-05-08 08:40 11.59323 113.63309 29835 ft 447 kts 265°
2026-05-08 08:41 11.58601 113.57020 29834 ft 446 kts 265°
2026-05-08 08:41 11.57879 113.50732 29835 ft 446 kts 264°
2026-05-08 08:42 11.57279 113.45513 29835 ft 446 kts 264°
2026-05-08 08:42 11.56437 113.38212 29835 ft 446 kts 264°
2026-05-08 08:43 11.55712 113.31933 29837 ft 445 kts 264°
2026-05-08 08:43 11.55120 113.26820 29837 ft 446 kts 265°
2026-05-08 08:44 11.54393 113.20540 29837 ft 445 kts 264°
2026-05-08 08:44 11.53664 113.14266 29837 ft 445 kts 265°
2026-05-08 08:45 11.52934 113.07992 29837 ft 445 kts 264°
2026-05-08 08:45 11.52206 113.01751 29837 ft 446 kts 264°
2026-05-08 08:46 11.51474 112.95477 29837 ft 446 kts 264°
2026-05-08 08:46 11.50739 112.89200 29837 ft 446 kts 265°
2026-05-08 08:47 11.50004 112.82930 29837 ft 445 kts 264°
2026-05-08 08:47 11.49274 112.76715 29835 ft 445 kts 264°
2026-05-08 08:48 11.48536 112.70437 29838 ft 445 kts 264°
2026-05-08 08:48 11.47806 112.64254 29837 ft 446 kts 264°
2026-05-08 08:49 11.47066 112.57976 29837 ft 446 kts 264°
2026-05-08 08:49 11.46362 112.51666 29837 ft 446 kts 265°
2026-05-08 08:50 11.45686 112.45422 29833 ft 445 kts 265°
2026-05-08 08:50 11.45000 112.39147 29837 ft 445 kts 265°
2026-05-08 08:51 11.44309 112.32875 29840 ft 445 kts 264°
2026-05-08 08:51 11.43655 112.26966 29837 ft 445 kts 265°
2026-05-08 08:52 11.42960 112.20698 29837 ft 445 kts 264°
2026-05-08 08:52 11.42264 112.14439 29840 ft 445 kts 265°
2026-05-08 08:53 11.41565 112.08161 29840 ft 444 kts 265°
2026-05-08 08:53 11.40907 112.02256 29839 ft 444 kts 265°
2026-05-08 08:54 11.40208 111.95998 29840 ft 444 kts 264°
2026-05-08 08:54 11.39507 111.89740 29840 ft 444 kts 265°
2026-05-08 08:55 11.38805 111.83481 29840 ft 444 kts 264°
2026-05-08 08:55 11.38102 111.77230 29842 ft 444 kts 265°
2026-05-08 08:56 11.37399 111.70982 29842 ft 443 kts 265°
2026-05-08 08:56 11.36695 111.64743 29843 ft 443 kts 265°
2026-05-08 08:57 11.35990 111.58502 29843 ft 443 kts 265°
2026-05-08 08:57 11.35284 111.52273 29840 ft 443 kts 265°
2026-05-08 08:58 11.34581 111.46074 29840 ft 443 kts 265°
2026-05-08 08:58 11.33872 111.39838 29842 ft 443 kts 265°
2026-05-08 08:59 11.33162 111.33600 29843 ft 443 kts 265°
2026-05-08 08:59 11.32450 111.27368 29842 ft 443 kts 265°
2026-05-08 09:00 11.31738 111.21132 29847 ft 443 kts 264°
2026-05-08 09:00 11.31025 111.14907 29845 ft 443 kts 265°
2026-05-08 09:01 11.30307 111.08682 29845 ft 441 kts 264°
2026-05-08 09:01 11.29545 111.02478 29845 ft 440 kts 264°
2026-05-08 09:02 11.28769 110.96296 29845 ft 440 kts 264°
2026-05-08 09:02 11.27995 110.90110 29845 ft 440 kts 264°
2026-05-08 09:03 11.27225 110.83923 29840 ft 440 kts 264°
2026-05-08 09:03 11.26461 110.77791 29839 ft 439 kts 265°
2026-05-08 09:04 11.25694 110.71636 29840 ft 438 kts 264°
2026-05-08 09:04 11.24924 110.65477 29840 ft 438 kts 265°
2026-05-08 09:05 11.24154 110.59319 29840 ft 438 kts 264°
2026-05-08 09:05 11.23381 110.53162 29840 ft 438 kts 265°
2026-05-08 09:06 11.22609 110.47009 29840 ft 438 kts 264°
2026-05-08 09:06 11.21854 110.41013 29840 ft 438 kts 265°
2026-05-08 09:07 11.21077 110.34847 29841 ft 438 kts 264°
2026-05-08 09:07 11.20333 110.28947 29839 ft 438 kts 264°
2026-05-08 09:08 11.19555 110.22794 29841 ft 438 kts 264°
2026-05-08 09:08 11.18775 110.16637 29838 ft 438 kts 264°
2026-05-08 09:09 11.17994 110.10482 29837 ft 438 kts 265°
2026-05-08 09:09 11.17216 110.04358 29837 ft 438 kts 265°
2026-05-08 09:10 11.16485 109.98617 29841 ft 438 kts 265°
2026-05-08 09:10 11.15701 109.92465 29839 ft 438 kts 264°
2026-05-08 09:11 11.14915 109.86310 29841 ft 438 kts 265°
2026-05-08 09:11 11.14129 109.80165 29841 ft 438 kts 264°
2026-05-08 09:12 11.13346 109.74053 29840 ft 438 kts 265°
2026-05-08 09:12 11.12557 109.67903 29841 ft 438 kts 264°
2026-05-08 09:13 11.11767 109.61751 29839 ft 438 kts 265°
2026-05-08 09:13 11.10975 109.55599 29840 ft 438 kts 264°
2026-05-08 09:14 11.10200 109.49455 29838 ft 437 kts 265°
2026-05-08 09:14 11.09474 109.43306 29835 ft 437 kts 265°
2026-05-08 09:15 11.08750 109.37185 29833 ft 438 kts 265°
2026-05-08 09:15 11.08014 109.31036 29835 ft 437 kts 265°
2026-05-08 09:16 11.07271 109.24886 29830 ft 438 kts 265°
2026-05-08 09:16 11.06526 109.18731 29828 ft 437 kts 265°
2026-05-08 09:17 11.05782 109.12582 29829 ft 437 kts 265°
2026-05-08 09:17 11.05036 109.06438 29829 ft 437 kts 265°
2026-05-08 09:18 11.04290 109.00297 29832 ft 438 kts 265°
2026-05-08 09:18 11.03540 108.94138 29825 ft 437 kts 265°
2026-05-08 09:19 11.02790 108.87989 29826 ft 438 kts 265°
2026-05-08 09:19 11.02044 108.81874 29821 ft 437 kts 265°
2026-05-08 09:20 11.01293 108.75736 29821 ft 437 kts 264°
2026-05-08 09:20 11.00537 108.69593 29819 ft 437 kts 265°
2026-05-08 09:21 10.99781 108.63450 29821 ft 437 kts 264°
2026-05-08 09:22 10.97492 108.44884 26204 ft 460 kts 263°
2026-05-08 09:23 10.97090 108.41636 25421 ft 464 kts 262°
2026-05-08 09:23 10.96685 108.38372 24746 ft 464 kts 262°
2026-05-08 09:23 10.96284 108.35139 24292 ft 459 kts 262°
2026-05-08 09:23 10.95885 108.31924 23813 ft 454 kts 262°
2026-05-08 09:24 10.95490 108.28740 23204 ft 453 kts 262°
2026-05-08 09:24 10.95094 108.25563 22565 ft 451 kts 262°
2026-05-08 09:24 10.94703 108.22417 22030 ft 445 kts 262°
2026-05-08 09:24 10.94317 108.19313 21460 ft 441 kts 262°
2026-05-08 09:25 10.93932 108.16225 20889 ft 438 kts 262°
2026-05-08 09:25 10.93549 108.13159 20328 ft 435 kts 262°
2026-05-08 09:25 10.93170 108.10121 19811 ft 430 kts 262°
2026-05-08 09:25 10.92926 108.07101 19278 ft 427 kts 270°
2026-05-08 09:26 10.93158 108.04140 18729 ft 424 kts 277°
2026-05-08 09:26 10.93542 108.01136 18185 ft 422 kts 277°
2026-05-08 09:26 10.93931 107.98188 17631 ft 417 kts 277°
2026-05-08 09:26 10.94307 107.95296 17069 ft 414 kts 277°
2026-05-08 09:27 10.94679 107.92408 16554 ft 408 kts 277°
2026-05-08 09:27 10.95045 107.89546 15936 ft 407 kts 277°
2026-05-08 09:27 10.95406 107.86708 15341 ft 405 kts 277°
2026-05-08 09:27 10.95760 107.83915 14817 ft 401 kts 277°
2026-05-08 09:28 10.96113 107.81120 14337 ft 396 kts 277°
2026-05-08 09:28 10.96463 107.78355 13853 ft 391 kts 277°
2026-05-08 09:28 10.96808 107.75624 13265 ft 389 kts 278°
2026-05-08 09:28 10.97152 107.72898 12661 ft 386 kts 278°
2026-05-08 09:29 10.97489 107.70225 12350 ft 374 kts 278°
2026-05-08 09:29 10.97814 107.67647 12185 ft 359 kts 278°
2026-05-08 09:29 10.98124 107.65180 12058 ft 344 kts 278°
2026-05-08 09:29 10.98421 107.62818 11929 ft 329 kts 278°
2026-05-08 09:30 10.98611 107.61305 11836 ft 321 kts 278°
2026-05-08 09:30 10.98982 107.58358 11668 ft 316 kts 278°
2026-05-08 09:30 10.99261 107.56138 11556 ft 316 kts 278°
2026-05-08 09:30 10.99539 107.53923 11431 ft 315 kts 278°
2026-05-08 09:31 10.99817 107.51709 11319 ft 315 kts 278°
2026-05-08 09:31 11.00094 107.49505 11195 ft 314 kts 278°
2026-05-08 09:31 11.00370 107.47303 11080 ft 313 kts 278°
2026-05-08 09:31 11.00556 107.45817 10994 ft 313 kts 278°
2026-05-08 09:32 11.00830 107.43623 10747 ft 313 kts 278°
2026-05-08 09:32 11.01104 107.41434 10387 ft 310 kts 278°
2026-05-08 09:32 11.01223 107.38555 9849 ft 308 kts 261°
2026-05-08 09:32 11.00916 107.37158 9670 ft 303 kts 254°
2026-05-08 09:33 11.00319 107.35112 9318 ft 300 kts 252°
2026-05-08 09:33 10.99705 107.33090 8917 ft 299 kts 252°
2026-05-08 09:33 10.99097 107.31071 8499 ft 298 kts 253°
2026-05-08 09:33 10.98489 107.29041 8205 ft 296 kts 253°
2026-05-08 09:34 10.97900 107.27065 7962 ft 295 kts 253°
2026-05-08 09:34 10.97304 107.25060 7725 ft 294 kts 253°
2026-05-08 09:34 10.96737 107.23067 7486 ft 293 kts 256°
2026-05-08 09:34 10.96312 107.21036 7249 ft 292 kts 259°
2026-05-08 09:35 10.95940 107.19005 7016 ft 291 kts 260°
2026-05-08 09:35 10.95573 107.16978 6795 ft 290 kts 260°
2026-05-08 09:35 10.95205 107.14956 6611 ft 289 kts 260°
2026-05-08 09:35 10.94843 107.12970 6429 ft 288 kts 260°
2026-05-08 09:36 10.94476 107.10967 6240 ft 288 kts 260°
2026-05-08 09:36 10.94108 107.08963 6045 ft 287 kts 260°
2026-05-08 09:36 10.93743 107.06972 5853 ft 286 kts 260°
2026-05-08 09:36 10.93400 107.05103 5661 ft 285 kts 259°
2026-05-08 09:37 10.93035 107.03121 5481 ft 285 kts 260°
2026-05-08 09:37 10.92672 107.01142 5292 ft 284 kts 260°
2026-05-08 09:37 10.92309 106.99169 5106 ft 283 kts 260°
2026-05-08 09:37 10.91948 106.97202 4911 ft 282 kts 260°
2026-05-08 09:38 10.91590 106.95260 4715 ft 281 kts 260°
2026-05-08 09:38 10.91232 106.93313 4493 ft 279 kts 260°
2026-05-08 09:38 10.90880 106.91403 4241 ft 270 kts 260°
2026-05-08 09:38 10.90538 106.89549 3993 ft 263 kts 260°
2026-05-08 09:39 10.90173 106.87759 3751 ft 256 kts 256°
2026-05-08 09:39 10.89670 106.86041 3504 ft 250 kts 252°
2026-05-08 09:39 10.89186 106.84362 3267 ft 244 kts 255°
2026-05-08 09:39 10.88657 106.82742 3022 ft 239 kts 249°
2026-05-08 09:40 10.88055 106.81189 2777 ft 234 kts 249°
2026-05-08 09:40 10.87480 106.79679 2540 ft 229 kts 249°
2026-05-08 09:40 10.86924 106.78181 2324 ft 223 kts 250°
2026-05-08 09:40 10.86395 106.76722 2070 ft 214 kts 250°
2026-05-08 09:41 10.85886 106.75357 1796 ft 199 kts 249°
2026-05-08 09:41 10.85406 106.74088 1584 ft 185 kts 249°
2026-05-08 09:41 10.84962 106.72905 1335 ft 173 kts 248°
2026-05-08 09:41 10.84550 106.71806 1126 ft 160 kts 247°
2026-05-08 09:42 10.84169 106.70792 958 ft 149 kts 246°
2026-05-08 09:42 10.83802 106.69817 767 ft 146 kts 245°
2026-05-08 09:42 10.83456 106.68873 539 ft 139 kts 248°
2026-05-08 09:42 10.83123 106.67964 323 ft 137 kts 243°
2026-05-08 09:43 10.82764 106.67046 216 ft 142 kts 246°
2026-05-08 09:43 10.82411 106.66106 48 ft 141 kts 245°
2026-05-08 09:43 10.82077 106.65206 208 ft 143 kts 247°
2026-05-08 09:43 10.81694 106.64108 794 ft 181 kts 251°
2026-05-08 09:44 10.81291 106.62835 1665 ft 189 kts 252°
2026-05-08 09:44 10.80844 106.61541 1992 ft 202 kts 248°
2026-05-08 09:44 10.80286 106.60148 2032 ft 222 kts 246°
2026-05-08 09:44 10.79690 106.58662 2067 ft 237 kts 247°
2026-05-08 09:45 10.79054 106.57029 2372 ft 257 kts 248°
2026-05-08 09:45 10.78396 106.55300 2912 ft 266 kts 249°
2026-05-08 09:45 10.77728 106.53526 3529 ft 271 kts 249°
2026-05-08 09:45 10.77049 106.51715 3908 ft 274 kts 249°
2026-05-08 09:46 10.76128 106.50006 4025 ft 279 kts 230°
2026-05-08 09:46 10.74863 106.48517 4021 ft 279 kts 228°
2026-05-08 09:46 10.73423 106.47188 4016 ft 280 kts 212°
2026-05-08 09:46 10.71695 106.46519 4019 ft 277 kts 187°
2026-05-08 09:47 10.69793 106.46631 4022 ft 274 kts 166°
2026-05-08 09:47 10.67948 106.47099 4017 ft 273 kts 163°
2026-05-08 09:47 10.66127 106.47649 4011 ft 273 kts 159°
2026-05-08 09:47 10.64558 106.48683 4020 ft 269 kts 131°
2026-05-08 09:48 10.63632 106.50299 4016 ft 265 kts 105°
2026-05-08 09:48 10.63534 106.52148 4019 ft 263 kts 80°
2026-05-08 09:48 10.63968 106.53955 4018 ft 265 kts 73°
2026-05-08 09:48 10.64510 106.55746 4019 ft 265 kts 72°
2026-05-08 09:49 10.65064 106.57534 4015 ft 265 kts 72°
2026-05-08 09:49 10.65617 106.59301 4017 ft 265 kts 72°
2026-05-08 09:49 10.66185 106.61110 4020 ft 266 kts 72°
2026-05-08 09:49 10.66674 106.62666 4020 ft 265 kts 72°
2026-05-08 09:50 10.67235 106.64447 4021 ft 265 kts 72°
2026-05-08 09:50 10.67788 106.66205 4018 ft 265 kts 72°
2026-05-08 09:50 10.68346 106.67991 4020 ft 265 kts 72°
2026-05-08 09:50 10.68904 106.69776 4021 ft 264 kts 72°
2026-05-08 09:51 10.69465 106.71559 4017 ft 265 kts 72°
2026-05-08 09:51 10.70029 106.73346 4018 ft 266 kts 72°
2026-05-08 09:51 10.70592 106.75139 4016 ft 266 kts 72°
2026-05-08 09:51 10.71146 106.76906 4010 ft 256 kts 72°
2026-05-08 09:52 10.71673 106.78597 4013 ft 247 kts 72°
2026-05-08 09:52 10.72187 106.80249 4017 ft 245 kts 73°
2026-05-08 09:52 10.72700 106.81896 4013 ft 244 kts 72°
2026-05-08 09:52 10.73196 106.83485 4017 ft 245 kts 72°
2026-05-08 09:53 10.73706 106.85123 4013 ft 245 kts 72°
2026-05-08 09:53 10.74212 106.86746 4016 ft 245 kts 73°
2026-05-08 09:53 10.74724 106.88392 4007 ft 245 kts 72°
2026-05-08 09:53 10.75268 106.90035 4004 ft 246 kts 68°
2026-05-08 09:54 10.76152 106.91515 4011 ft 246 kts 49°
2026-05-08 09:54 10.77521 106.92536 4007 ft 246 kts 23°
2026-05-08 09:54 10.79204 106.92733 4006 ft 245 kts 349°
2026-05-08 09:54 10.80783 106.92145 4008 ft 241 kts 336°
2026-05-08 09:55 10.82301 106.91414 4003 ft 242 kts 336°
2026-05-08 09:55 10.83819 106.90688 4005 ft 242 kts 336°
2026-05-08 09:55 10.85344 106.89977 3999 ft 240 kts 336°
2026-05-08 09:55 10.86867 106.89272 4002 ft 240 kts 336°
2026-05-08 09:56 10.88275 106.88371 3993 ft 241 kts 319°
2026-05-08 09:56 10.89176 106.86957 4012 ft 242 kts 287°
2026-05-08 09:56 10.89380 106.85264 3840 ft 239 kts 269°
2026-05-08 09:56 10.89068 106.83640 3557 ft 237 kts 250°
2026-05-08 09:57 10.87821 106.80559 2839 ft 230 kts 250°
2026-05-08 09:57 10.87279 106.79066 2527 ft 220 kts 250°
2026-05-08 09:57 10.86750 106.77657 2286 ft 204 kts 249°
2026-05-08 09:58 10.86263 106.76369 2030 ft 188 kts 249°
2026-05-08 09:58 10.85811 106.75163 1779 ft 176 kts 249°
2026-05-08 09:58 10.85390 106.74043 1569 ft 163 kts 249°
2026-05-08 09:58 10.85000 106.73001 1366 ft 152 kts 248°
2026-05-08 09:59 10.84640 106.72042 1192 ft 142 kts 245°
2026-05-08 09:59 10.84287 106.71105 1000 ft 139 kts 245°
2026-05-08 09:59 10.83948 106.70195 850 ft 140 kts 244°
2026-05-08 09:59 10.83600 106.69267 657 ft 138 kts 246°
2026-05-08 10:00 10.83258 106.68348 483 ft 141 kts 245°
2026-05-08 10:00 10.82896 106.67403 313 ft 144 kts 243°
2026-05-08 10:00 10.82544 106.66467 109 ft 139 kts 246°
2026-05-08 10:00 10.82209 106.65591 44 ft 116 kts 249°
2026-05-08 10:01 10.81975 106.64970 41 ft 71 kts 249°
2026-05-08 10:01 10.81851 106.64637 42 ft 37 kts 249°
2026-05-08 10:01 10.81741 106.64423 42 ft 34 kts 228°
2026-05-08 10:01 10.81593 106.64299 41 ft 21 kts 202°
2026-05-08 10:02 10.81503 106.64307 43 ft 0 kts 158°
2026-05-08 10:03 10.81460 106.64324 43 ft 11 kts 158°
2026-05-08 10:03 10.81386 106.64352 44 ft 13 kts 159°
2026-05-08 10:04 10.81289 106.64389 42 ft 17 kts 159°
2026-05-08 10:04 10.81258 106.64480 43 ft 15 kts 68°
2026-05-08 10:04 10.81297 106.64579 45 ft 16 kts 69°
2026-05-08 10:04 10.81339 106.64693 45 ft 18 kts 69°
2026-05-08 10:05 10.81387 106.64815 45 ft 20 kts 69°
2026-05-08 10:05 10.81438 106.64952 47 ft 22 kts 69°
2026-05-08 10:05 10.81499 106.65112 44 ft 26 kts 69°
2026-05-08 10:05 10.81554 106.65259 43 ft 21 kts 69°
2026-05-08 10:06 10.81608 106.65401 41 ft 23 kts 69°
2026-05-08 10:06 10.81665 106.65554 42 ft 19 kts 69°
2026-05-08 10:06 10.81699 106.65645 42 ft 15 kts 69°
2026-05-08 10:06 10.81727 106.65735 41 ft 14 kts 84°
2026-05-08 10:07 10.81694 106.65821 40 ft 15 kts 112°
2026-05-08 10:07 10.81691 106.65920 41 ft 14 kts 70°
2026-05-08 10:07 10.81727 106.66019 43 ft 16 kts 69°
2026-05-08 10:07 10.81769 106.66130 43 ft 18 kts 69°
2026-05-08 10:08 10.81813 106.66246 43 ft 17 kts 69°
2026-05-08 10:08 10.81856 106.66361 43 ft 16 kts 69°
2026-05-08 10:08 10.81896 106.66466 43 ft 14 kts 69°
2026-05-08 10:08 10.81931 106.66558 43 ft 13 kts 69°
2026-05-08 10:09 10.81911 106.66618 43 ft 8 kts 156°
2026-05-08 10:09 10.81866 106.66635 43 ft 5 kts 159°
2026-05-08 10:09 10.81862 106.66637 43 ft 0 kts 159°